Track SPACE STATION now! 10-day predictions The ISS Notification Tool HD Live streaming from Space Station SPACE STATION is classified as:
1 25544U 98067A 25015.71081605 -.00019999 00000-0 -34300-3 0 9993 2 25544 51.6408 342.3236 0001968 98.6252 317.1620 15.50030601491516